TITAN 3C TRANSTAGE DEB, 43447

Orbit data source: Space-Track

TITAN 3C TRANSTAGE DEB, 43447 is space debris in GEO originally from a launch on Sun, 09 Feb 1969 UTC launched from the Air Force Eastern Test Range (AFETR). Debris objects in space refer to the collection of defunct objects orbiting the Earth. Examples of debris include non-operational satellites, rocket bodies, and fragments generated from explosions, collisions, or faulty payload assembly.

Not visible in the next 10 days
Identifier
43447, 1969-013G
Orbit
GEO
Country
Flag of USUS
Related business
Manufacturer
Martin Marietta
Mission
Spacecraft
Bus & Motor
Unknown
Mass
Unknown
Launch date (UTC)
1969-02-09 (57 years ago)
Launch vehicle
Unknown
Launch site
Air Force Eastern Test Range (AFETR)
Object type
Payload
Rocket body
Debris
Shape & HBR
Unknown
Radar Cross Section
RCS unknown

Expand to show TLE details & history
Last TLE update: 20 hours ago

TLE from 20 hours ago
0 TITAN 3C TRANSTAGE DEB
1 43447U 69013G   25257.97468142 -.00000197  00000-0  00000-0 0  9991
2 43447   0.5449  84.0381 0139384  19.6962 257.8198  0.97140932 26587
Epoch: 2025-09-14T23:23Z
TLE epoch observation values (Epoch: 2025-09-14T23:23:32.474Z)
Latitude
-0.54897°
Longitude
14.92887°
Altitude
36,823.48 km
Speed
3.033 km/s
True Right ascension
00h 00m 00s
True Declination
0° 32' 54"
Sunlit
Object was in full shadow at epoch
Visualization orbit readout
Latitude
Unknown
Longitude
Unknown
Altitude
Unknown
Speed
Unknown
Apparent Right ascension
Unknown
Apparent Declination
Unknown
Sunlit
N/A
Visualization observer readout
Local Sidereal Time
12:08:39
Azimuth
Unknown
Elevation
Unknown
Doppler factor
Unknown
Orbital elements
Apogee altitude
37,289.11 km
Perigee altitude
36,088.541 km
Semi-major axis
43,066.963 km
Eccentricity
0.01394
Inclination
0.5449°
RAAN
84.0381°
Arg. of periapsis
19.6962°
True anomaly
256.26444°
Mean anomaly
257.8198°
Eccentric anomaly
257.04153°
Mean motion
0.24284 °/min
Orbital period
1,482.44 mins
BSTAR
0
Loading maneuver chart data...
Computing Atmospheric mass density...

Documentation

Showing up to 5 results
|